This demonstration page uses our WeatherBlox Daily Observations layout. Learn more.

Left ArrowRight Arrow

Hourly Observations for August 29, 2022

Temp ( °F °C ) Dew Point ( °F °C ) Humidity (%) Winds ( mph kmh ) Pressure ( in mb ) Visibility ( mi km ) Precip ( " mm )
12:52 am 00:52 Clear 76 24.4 71 21.7 85 85 NNW 6 9 29.71 1006 10 16 0.00 0.00
1:52 am 01:52 Clear 74 23.3 68 20 82 82 N 8 13 29.72 1007 10 16 0.00 0.00
2:52 am 02:52 Mostly Cloudy 72 22.2 68 20 87 87 NNE 6 9 29.75 1007 10 16 0.00 0.00
3:52 am 03:52 Mostly Cloudy 71 21.7 67 19.4 87 87 N 7 11 29.75 1008 10 16 0.00 0.00
4:17 am 04:17 Mostly Cloudy with Thunderstorms 71 21.7 67 19.4 87 87 N 7 11 29.75 1007 10 16 0.00 0.00
4:52 am 04:52 Cloudy with Thunderstorms 72 22.2 67 19.4 84 84 NW 15 24 29.81 1010 8 13 0.01 0.13
5:52 am 05:52 Cloudy with Thunderstorms 69 20.6 64 17.8 84 84 NNE 9 15 29.79 1009 7 11 0.05 1.27
6:34 am 06:34 Cloudy with Thunderstorms 70 21.1 62 16.7 76 76 E 15 24 29.77 1008 10 16 0.01 0.13
6:52 am 06:52 Mostly Cloudy with Thunderstorms 68 20 63 17.2 84 84 NW 6 9 29.80 1009 10 16 0.01 0.13
7:09 am 07:09 Mostly Cloudy 68 20 63 17.2 84 84 NW 3 6 29.83 1010 10 16 0.00 0.00
7:52 am 07:52 Mostly Cloudy 67 19.4 64 17.8 90 90 N 5 7 29.85 1011 10 16 0.00 0.00
8:19 am 08:19 Mostly Cloudy with Nearby Thunderstorms 68 20 64 17.8 87 87 Calm 29.86 1011 10 16 0.00 0.00
8:27 am 08:27 Mostly Cloudy with Thunderstorms 68 20 64 17.8 87 87 WNW 5 7 29.87 1012 10 16 0.00 0.00
8:45 am 08:45 Mostly Cloudy 69 20.6 65 18.3 87 87 Calm 29.88 1012 10 16 0.00 0.00
8:52 am 08:52 Mostly Cloudy 70 21.1 66 18.9 87 87 VRB 6 9 29.89 1012 10 16 0.00 0.00
9:52 am 09:52 Mostly Cloudy with Thunderstorms 72 22.2 65 18.3 79 79 WNW 10 17 29.93 1014 10 16 0.00 0.00
10:07 am 10:07 Mostly Cloudy with Light Rain 72 22.2 66 18.9 82 82 N 7 11 29.91 1013 10 16 0.01 0.13
10:52 am 10:52 Mostly Cloudy with Light Rain 70 21.1 65 18.3 84 84 NW 14 22 29.95 1014 10 16 0.01 0.13
11:52 am 11:52 Mostly Cloudy 75 23.9 65 18.3 71 71 WNW 8 13 29.97 1015 10 16 0.01 0.13
12:52 pm 12:52 Mostly Cloudy 78 25.6 60 15.6 54 54 N 3 6 29.96 1015 10 16 0.00 0.00
1:52 pm 13:52 Partly Cloudy 81 27.2 63 17.2 54 54 N 9 15 29.95 1014 10 16 0.00 0.00
2:52 pm 14:52 Partly Cloudy 83 28.3 61 16.1 48 48 NNE 6 9 29.94 1014 10 16 0.00 0.00
3:52 pm 15:52 Partly Cloudy 84 28.9 61 16.1 46 46 VRB 3 6 29.91 1013 10 16 0.00 0.00
4:52 pm 16:52 Partly Cloudy 86 30 60 15.6 42 42 NW 6 9 29.91 1013 10 16 0.00 0.00
5:52 pm 17:52 Mostly Sunny 87 30.6 53 11.7 31 31 Calm 29.93 1014 10 16 0.00 0.00
6:52 pm 18:52 Mostly Sunny 83 28.3 60 15.6 46 46 N 3 6 29.93 1014 10 16 0.00 0.00
7:52 pm 19:52 Sunny 77 25 65 18.3 66 66 E 3 6 29.95 1014 10 16 0.00 0.00
8:52 pm 20:52 Clear 73 22.8 64 17.8 73 73 Calm 29.97 1015 10 16 0.00 0.00
9:52 pm 21:52 Clear 70 21.1 61 16.1 73 73 Calm 29.98 1015 10 16 0.00 0.00
10:52 pm 22:52 Clear 69 20.6 60 15.6 73 73 Calm 30.00 1016 10 16 0.00 0.00
11:52 pm 23:52 Clear 67 19.4 61 16.1 81 81 Calm 30.01 1016 10 16 0.00 0.00

Powered by AerisWeather